Flag for India Weather past 2 weeks in New Okhla Industrial Development Authority, Uttar Pradesh, India

Now
55 °F

Fog.


Feels Like: 55 °F
Forecast: 47 / 64 °F
Wind: No wind

Location: New Delhi Palam Airport

Current Time: Jan 25, 2015 at 8:09:27 PM

Latest Report: Jan 25, 2015 at 7:00 PM


Visibility: 1 mi

Pressure: 30.09 "Hg

Humidity: 77%

Dew point: 48 °F

Location of New Okhla Industrial Development AuthorityLocation

Historic Weather in New Okhla Industrial Development Authority — Graph

°F

New Okhla Industrial Development Authority temperature yesterday

Maximum temperature yesterday: 59 °F (at 2:00 PM)
Minimum temperature yesterday: 50 °F (at 11:30 PM)
Average temperature yesterday: 54 °F

Past Weeks' High & Low Weather Summary

 TemperatureHumidityPressure
High70 °F (Jan 17, 3:30 PM)100% (Jan 11, 12:00 AM)30.21 "Hg (Jan 11, 12:00 AM)
Low41 °F (Jan 15, 5:30 AM)43% (Jan 18, 3:00 PM)29.92 "Hg (Jan 14, 3:30 AM)
Average54 °F88%30.09 "Hg
* Reported Jan 10 6:30 PM — Jan 25 6:30 PM, New Okhla Industrial Development Authority, Weather by CustomWeather, © 2014

Note: Actual official high and low records may vary slightly from our data, if they occured in-between our weather recording intervals... More about our weather records

Advertising

New Okhla Industrial Development Authority weather history for previous 24 hours

 ConditionsComfort  
Time TempWeatherWind HumidityBarometerVisibility
6:30 PM
Jan 25
55 °FFog.3 mph77%30.09 "Hg1 mi
6:00 PM55 °FFog.5 mph77%30.09 "Hg1 mi
5:30 PM57 °FClear.6 mph72%30.09 "Hg1 mi
5:00 PM61 °FClear.8 mph63%30.07 "Hg1 mi
4:30 PM61 °FClear.7 mph63%30.07 "Hg1 mi
3:30 PM63 °FClear.6 mph59%30.07 "Hg1 mi
3:00 PM61 °FClear.6 mph63%30.07 "Hg1 mi
2:30 PM61 °FClear.6 mph72%30.09 "Hg1 mi
2:00 PM59 °FFog.6 mph88%30.09 "Hg1 mi
1:30 PM57 °FFog.5 mph100%30.12 "Hg1 mi
1:00 PM57 °FFog.6 mph100%30.15 "Hg1 mi
12:30 PM57 °FFog.6 mph100%30.15 "Hg1 mi
11:30 AM52 °FFog.6 mph100%30.18 "Hg1 mi
11:00 AM52 °FFog.6 mph100%30.18 "Hg1 mi
10:00 AM50 °FFog.7 mph100%30.18 "Hg1 mi
9:30 AM48 °FFog.7 mph100%30.15 "Hg1 mi
8:30 AM48 °FFog.6 mph100%30.15 "Hg1 mi
8:00 AM48 °FFog.8 mph100%30.15 "Hg1 mi
7:30 AM48 °FFog.9 mph100%30.12 "Hg1 mi
7:00 AM48 °FFog.9 mph100%30.12 "Hg1 mi
6:30 AM48 °FFog.8 mph100%30.12 "Hg1 mi
6:00 AM48 °FFog.8 mph100%30.09 "Hg1 mi
5:30 AM48 °FFog.8 mph100%30.09 "Hg0 mi
5:00 AM48 °FFog.7 mph100%30.12 "Hg0 mi
4:30 AM50 °FFog.7 mph100%30.12 "Hg0 mi
4:00 AM50 °FFog.8 mph94%30.12 "Hg0 mi
3:00 AM48 °FFog.9 mph100%30.12 "Hg0 mi
2:30 AM48 °FFog.8 mph100%30.12 "Hg0 mi
2:00 AM48 °FFog.8 mph100%30.12 "Hg0 mi
1:30 AM48 °FFog.6 mph100%30.12 "Hg0 mi
1:00 AM48 °FFog.5 mph100%30.12 "Hg1 mi
12:30 AM50 °FFog.5 mph100%30.12 "Hg1 mi
11:30 PM
Jan 24
50 °FFog.5 mph100%30.12 "Hg1 mi
11:00 PM52 °FFog.5 mph100%30.15 "Hg1 mi
10:30 PM52 °FFog.5 mph100%30.15 "Hg1 mi
10:00 PM54 °FFog.8 mph100%30.15 "Hg1 mi
9:30 PM54 °FFog.8 mph100%30.12 "Hg1 mi
9:00 PM54 °FFog.8 mph82%30.12 "Hg1 mi
8:30 PM54 °FFog.8 mph82%30.12 "Hg1 mi
8:00 PM54 °FFog.7 mph82%30.12 "Hg1 mi
Weather by CustomWeather, © 2014

See weather overviewHow to use our weather pages